Time,TemperatureF,DewpointF,PressureIn,WindDirection,WindDirectionDegrees,WindSpeedMPH,WindSpeedGustMPH,Humidity,HourlyPrecipIn,Conditions,Clouds,dailyrainin,SolarRadiationWatts/m^2,SoftwareType,DateUTC
2013-01-04 00:22:00,70.6,-99.9,30.08,ENE,68,0.0,1.0,0,0.00,,,0.00,0,weatherlink.com 1.10,2013-01-04 04:22:00,
2013-01-04 00:37:00,70.5,-99.9,30.08,ENE,68,0.0,3.0,0,0.00,,,0.00,0,weatherlink.com 1.10,2013-01-04 04:37:00,
2013-01-04 00:52:00,70.6,-99.9,30.07,ENE,68,1.0,2.0,0,0.00,,,0.00,0,weatherlink.com 1.10,2013-01-04 04:52:00,
2013-01-04 01:22:00,70.6,-99.9,30.07,ENE,68,0.0,1.0,0,0.00,,,0.00,0,weatherlink.com 1.10,2013-01-04 05:22:00,
2013-01-04 01:38:00,70.6,-99.9,30.07,ENE,68,0.0,3.0,0,0.00,,,0.00,0,weatherlink.com 1.10,2013-01-04 05:38:00,
2013-01-04 01:53:00,70.6,-99.9,30.06,ENE,68,0.0,1.0,0,0.00,,,0.00,0,weatherlink.com 1.10,2013-01-04 05:53:00,
2013-01-04 02:08:00,70.6,-99.9,30.06,ENE,68,0.0,1.0,0,0.00,,,0.00,0,weatherlink.com 1.10,2013-01-04 06:08:00,
2013-01-04 02:23:00,70.6,-99.9,30.05,ENE,68,0.0,1.0,0,0.00,,,0.00,0,weatherlink.com 1.10,2013-01-04 06:23:00,
2013-01-04 02:38:00,70.4,-99.9,30.05,SSE,148,0.0,2.0,0,0.00,,,0.00,0,weatherlink.com 1.10,2013-01-04 06:38:00,
2013-01-04 02:53:00,69.7,-99.9,30.05,SSE,148,0.0,1.0,0,0.00,,,0.00,0,weatherlink.com 1.10,2013-01-04 06:53:00,
2013-01-04 03:08:00,69.5,-99.9,30.05,SSE,148,0.0,2.0,0,0.00,,,0.00,0,weatherlink.com 1.10,2013-01-04 07:08:00,
2013-01-04 03:23:00,69.7,-99.9,30.05,SSE,148,0.0,2.0,0,0.00,,,0.00,0,weatherlink.com 1.10,2013-01-04 07:23:00,
2013-01-04 03:38:00,69.8,-99.9,30.05,SSE,148,0.0,1.0,0,0.00,,,0.00,0,weatherlink.com 1.10,2013-01-04 07:38:00,
2013-01-04 03:53:00,69.9,-99.9,30.05,SSE,148,0.0,2.0,0,0.00,,,0.00,0,weatherlink.com 1.10,2013-01-04 07:53:00,
2013-01-04 04:08:00,69.1,-99.9,30.05,SSE,148,0.0,1.0,0,0.00,,,0.00,0,weatherlink.com 1.10,2013-01-04 08:08:00,
2013-01-04 04:24:00,68.8,-99.9,30.05,SSE,148,0.0,2.0,0,0.00,,,0.00,0,weatherlink.com 1.10,2013-01-04 08:24:00,
2013-01-04 04:39:00,68.7,-99.9,30.05,SSE,148,0.0,2.0,0,0.00,,,0.00,0,weatherlink.com 1.10,2013-01-04 08:39:00,
2013-01-04 04:54:00,69.1,-99.9,30.06,SSE,148,0.0,2.0,0,0.00,,,0.00,0,weatherlink.com 1.10,2013-01-04 08:54:00,
2013-01-04 05:09:00,69.1,-99.9,30.06,SSE,148,0.0,1.0,0,0.00,,,0.00,0,weatherlink.com 1.10,2013-01-04 09:09:00,
2013-01-04 05:24:00,68.9,-99.9,30.06,ENE,62,4.0,4.0,0,0.00,,,0.00,0,weatherlink.com 1.10,2013-01-04 09:24:00,
2013-01-04 05:39:00,68.6,-99.9,30.07,ENE,62,1.0,3.0,0,0.00,,,0.00,0,weatherlink.com 1.10,2013-01-04 09:39:00,
2013-01-04 05:54:00,68.9,-99.9,30.07,ENE,62,2.0,3.0,0,0.00,,,0.00,0,weatherlink.com 1.10,2013-01-04 09:54:00,
2013-01-04 06:09:00,68.4,-99.9,30.07,ENE,62,0.0,1.0,0,0.00,,,0.00,0,weatherlink.com 1.10,2013-01-04 10:09:00,
2013-01-04 06:24:00,68.5,-99.9,30.08,ENE,62,0.0,2.0,0,0.00,,,0.00,0,weatherlink.com 1.10,2013-01-04 10:24:00,
2013-01-04 06:39:00,68.6,-99.9,30.08,ENE,62,0.0,1.0,0,0.00,,,0.00,0,weatherlink.com 1.10,2013-01-04 10:39:00,
2013-01-04 06:54:00,68.5,-99.9,30.09,ENE,62,0.0,1.0,0,0.00,,,0.00,0,weatherlink.com 1.10,2013-01-04 10:54:00,
2013-01-04 07:09:00,68.7,-99.9,30.10,ENE,62,0.0,2.0,0,0.00,,,0.00,12,weatherlink.com 1.10,2013-01-04 11:09:00,
2013-01-04 07:24:00,69.2,-99.9,30.10,ENE,62,0.0,1.0,0,0.00,,,0.00,35,weatherlink.com 1.10,2013-01-04 11:24:00,
2013-01-04 07:39:00,69.5,-99.9,30.11,ENE,62,0.0,0.0,0,0.00,,,0.00,74,weatherlink.com 1.10,2013-01-04 11:39:00,
2013-01-04 07:54:00,69.5,-99.9,30.12,ENE,62,0.0,1.0,0,0.00,,,0.00,128,weatherlink.com 1.10,2013-01-04 11:54:00,
2013-01-04 08:09:00,70.7,-99.9,30.12,ENE,62,0.0,1.0,0,0.00,,,0.00,183,weatherlink.com 1.10,2013-01-04 12:09:00,
2013-01-04 08:25:00,71.4,-99.9,30.12,ENE,62,0.0,1.0,0,0.00,,,0.00,232,weatherlink.com 1.10,2013-01-04 12:25:00,
2013-01-04 08:40:00,72.0,-99.9,30.13,ENE,62,0.0,2.0,0,0.00,,,0.00,292,weatherlink.com 1.10,2013-01-04 12:40:00,
2013-01-04 08:55:00,72.2,-99.9,30.14,ENE,62,1.0,2.0,0,0.00,,,0.00,345,weatherlink.com 1.10,2013-01-04 12:55:00,
2013-01-04 09:10:00,72.9,-99.9,30.14,ENE,62,0.0,3.0,0,0.00,,,0.00,390,weatherlink.com 1.10,2013-01-04 13:10:00,
2013-01-04 09:25:00,74.1,-99.9,30.15,ENE,62,1.0,3.0,0,0.00,,,0.00,441,weatherlink.com 1.10,2013-01-04 13:25:00,
2013-01-04 09:55:00,76.6,-99.9,30.14,ENE,67,3.0,4.0,0,0.00,,,0.00,533,weatherlink.com 1.10,2013-01-04 13:55:00,
2013-01-04 10:10:00,77.8,-99.9,30.14,SSE,147,1.0,7.0,0,0.00,,,0.00,599,weatherlink.com 1.10,2013-01-04 14:10:00,
2013-01-04 10:25:00,78.7,-99.9,30.14,ESE,123,1.0,7.0,0,0.00,,,0.00,640,weatherlink.com 1.10,2013-01-04 14:25:00,
2013-01-04 10:40:00,79.4,-99.9,30.14,ENE,71,3.0,9.0,0,0.00,,,0.00,749,weatherlink.com 1.10,2013-01-04 14:40:00,
2013-01-04 10:55:00,79.1,-99.9,30.13,ESE,103,3.0,7.0,0,0.00,,,0.00,700,weatherlink.com 1.10,2013-01-04 14:55:00,
2013-01-04 11:10:00,80.4,-99.9,30.13,ENE,61,4.0,14.0,0,0.00,,,0.00,735,weatherlink.com 1.10,2013-01-04 15:10:00,
2013-01-04 11:26:00,80.2,-99.9,30.12,SSE,161,1.0,8.0,0,0.00,,,0.00,744,weatherlink.com 1.10,2013-01-04 15:26:00,
2013-01-04 11:41:00,80.9,8.0,30.12,SE,132,4.0,7.0,6,0.00,,,0.00,784,weatherlink.com 1.10,2013-01-04 15:41:00,
2013-01-04 12:09:00,81.1,22.0,30.11,South,172,0.0,10.0,11,0.00,,,0.00,803,weatherlink.com 1.10,2013-01-04 16:09:00,
2013-01-04 12:25:00,82.0,28.0,30.10,East,96,2.0,9.0,14,0.00,,,0.00,225,weatherlink.com 1.10,2013-01-04 16:25:00,
2013-01-04 12:40:00,81.5,35.0,30.09,ESE,121,2.0,8.0,19,0.00,,,0.00,207,weatherlink.com 1.10,2013-01-04 16:40:00,
2013-01-04 12:55:00,82.2,30.0,30.08,SW,227,2.0,7.0,15,0.00,,,0.00,846,weatherlink.com 1.10,2013-01-04 16:55:00,
2013-01-04 13:10:00,80.7,40.0,30.07,ESE,109,2.0,11.0,23,0.00,,,0.00,299,weatherlink.com 1.10,2013-01-04 17:10:00,
2013-01-04 13:25:00,80.1,38.0,30.07,ENE,61,0.0,6.0,22,0.00,,,0.00,315,weatherlink.com 1.10,2013-01-04 17:25:00,
2013-01-04 13:40:00,81.5,41.0,30.06,ESE,117,3.0,8.0,24,0.00,,,0.00,255,weatherlink.com 1.10,2013-01-04 17:40:00,
2013-01-04 13:55:00,81.8,-99.9,30.05,NE,44,3.0,5.0,0,0.00,,,0.00,909,weatherlink.com 1.10,2013-01-04 17:55:00,
2013-01-04 14:10:00,80.4,21.0,30.05,NE,44,3.0,11.0,11,0.00,,,0.00,301,weatherlink.com 1.10,2013-01-04 18:10:00,
2013-01-04 14:26:00,78.7,-99.9,30.05,ENE,74,3.0,9.0,0,0.00,,,0.00,221,weatherlink.com 1.10,2013-01-04 18:26:00,
2013-01-04 14:41:00,79.3,-99.9,30.04,East,82,3.0,9.0,0,0.00,,,0.00,186,weatherlink.com 1.10,2013-01-04 18:41:00,
2013-01-04 14:56:00,78.7,-99.9,30.04,East,95,1.0,6.0,0,0.00,,,0.00,171,weatherlink.com 1.10,2013-01-04 18:56:00,
2013-01-04 15:11:00,78.2,-99.9,30.04,East,92,0.0,7.0,0,0.00,,,0.00,113,weatherlink.com 1.10,2013-01-04 19:11:00,
2013-01-04 15:26:00,77.8,-99.9,30.05,East,97,2.0,6.0,0,0.00,,,0.00,134,weatherlink.com 1.10,2013-01-04 19:26:00,
2013-01-04 15:41:00,78.9,-99.9,30.04,SSE,154,0.0,7.0,0,0.00,,,0.00,116,weatherlink.com 1.10,2013-01-04 19:41:00,
2013-01-04 15:56:00,78.5,-99.9,30.04,East,84,2.0,6.0,0,0.00,,,0.00,158,weatherlink.com 1.10,2013-01-04 19:56:00,
2013-01-04 16:11:00,78.9,-99.9,30.05,ESE,116,5.0,5.0,0,0.00,,,0.00,464,weatherlink.com 1.10,2013-01-04 20:11:00,
2013-01-04 16:26:00,79.9,-99.9,30.05,East,92,3.0,8.0,0,0.00,,,0.00,353,weatherlink.com 1.10,2013-01-04 20:26:00,
2013-01-04 16:43:00,78.6,-99.9,30.05,NE,50,1.0,8.0,0,0.00,,,0.00,269,weatherlink.com 1.10,2013-01-04 20:43:00,
2013-01-04 16:56:00,79.5,-99.9,30.06,ENE,65,0.0,4.0,0,0.00,,,0.00,195,weatherlink.com 1.10,2013-01-04 20:56:00,
2013-01-04 17:11:00,79.3,13.0,30.06,SE,140,0.0,6.0,8,0.00,,,0.00,141,weatherlink.com 1.10,2013-01-04 21:11:00,
2013-01-04 17:26:00,78.3,-99.9,30.06,East,81,0.0,5.0,0,0.00,,,0.00,37,weatherlink.com 1.10,2013-01-04 21:26:00,
2013-01-04 17:42:00,77.0,-99.9,30.06,SSE,154,0.0,4.0,0,0.00,,,0.00,18,weatherlink.com 1.10,2013-01-04 21:42:00,
2013-01-04 17:57:00,75.8,-99.9,30.06,ESE,111,0.0,4.0,0,0.00,,,0.00,7,weatherlink.com 1.10,2013-01-04 21:57:00,
2013-01-04 18:12:00,74.5,-99.9,30.06,ESE,105,1.0,5.0,0,0.00,,,0.00,0,weatherlink.com 1.10,2013-01-04 22:12:00,
2013-01-04 18:27:00,73.5,-99.9,30.06,East,79,2.0,5.0,0,0.00,,,0.00,0,weatherlink.com 1.10,2013-01-04 22:27:00,
2013-01-04 18:57:00,72.8,-99.9,30.07,ENE,63,0.0,1.0,0,0.00,,,0.00,0,weatherlink.com 1.10,2013-01-04 22:57:00,
2013-01-04 19:12:00,72.5,-99.9,30.08,ENE,63,0.0,0.0,0,0.00,,,0.00,0,weatherlink.com 1.10,2013-01-04 23:12:00,
2013-01-04 19:27:00,72.3,-99.9,30.08,ENE,63,0.0,0.0,0,0.00,,,0.00,0,weatherlink.com 1.10,2013-01-04 23:27:00,
2013-01-04 19:42:00,72.3,-99.9,30.09,ENE,63,0.0,1.0,0,0.00,,,0.00,0,weatherlink.com 1.10,2013-01-04 23:42:00,
2013-01-04 19:57:00,72.3,-99.9,30.09,ENE,63,0.0,0.0,0,0.00,,,0.00,0,weatherlink.com 1.10,2013-01-04 23:57:00,
2013-01-04 20:27:00,72.3,-99.9,30.10,ENE,63,0.0,0.0,0,0.00,,,0.00,0,weatherlink.com 1.10,2013-01-05 00:27:00,
2013-01-04 20:42:00,72.3,-99.9,30.10,ENE,63,0.0,2.0,0,0.00,,,0.00,0,weatherlink.com 1.10,2013-01-05 00:42:00,
2013-01-04 20:57:00,72.2,-99.9,30.10,ENE,63,0.0,1.0,0,0.00,,,0.00,0,weatherlink.com 1.10,2013-01-05 00:57:00,
2013-01-04 21:13:00,72.1,-99.9,30.10,ENE,63,0.0,2.0,0,0.00,,,0.00,0,weatherlink.com 1.10,2013-01-05 01:13:00,
2013-01-04 21:28:00,72.1,-99.9,30.11,ENE,63,0.0,1.0,0,0.00,,,0.00,0,weatherlink.com 1.10,2013-01-05 01:28:00,
2013-01-04 21:43:00,72.0,-99.9,30.11,ENE,63,0.0,1.0,0,0.00,,,0.00,0,weatherlink.com 1.10,2013-01-05 01:43:00,
2013-01-04 21:58:00,71.8,-99.9,30.11,ENE,63,0.0,1.0,0,0.00,,,0.00,0,weatherlink.com 1.10,2013-01-05 01:58:00,
2013-01-04 22:13:00,71.7,-99.9,30.11,ENE,63,0.0,0.0,0,0.00,,,0.00,0,weatherlink.com 1.10,2013-01-05 02:13:00,
2013-01-04 22:28:00,71.8,-99.9,30.10,ENE,63,0.0,0.0,0,0.00,,,0.00,0,weatherlink.com 1.10,2013-01-05 02:28:00,
2013-01-04 22:43:00,71.6,-99.9,30.10,ENE,63,0.0,3.0,0,0.00,,,0.00,0,weatherlink.com 1.10,2013-01-05 02:43:00,
2013-01-04 22:58:00,71.5,-99.9,30.10,ENE,63,0.0,2.0,0,0.00,,,0.00,0,weatherlink.com 1.10,2013-01-05 02:58:00,
2013-01-04 23:13:00,71.3,-99.9,30.10,ENE,63,0.0,2.0,0,0.00,,,0.00,0,weatherlink.com 1.10,2013-01-05 03:13:00,
2013-01-04 23:28:00,71.4,-99.9,30.10,ENE,63,0.0,1.0,0,0.00,,,0.00,0,weatherlink.com 1.10,2013-01-05 03:28:00,
2013-01-04 23:43:00,71.3,-99.9,30.10,South,180,0.0,4.0,0,0.00,,,0.00,0,weatherlink.com 1.10,2013-01-05 03:43:00,
2013-01-04 23:58:00,71.0,-99.9,30.09,South,180,0.0,3.0,0,0.00,,,0.00,0,weatherlink.com 1.10,2013-01-05 03:58:00,